Simultaneous Nadir Overpasses (SNOs) Predictions

Prediction of SNOs between METOP-B and NOAA-19 Satellite Orbit:

Table of predicted SNOs for the next 14.0 days since TLE Epoch: 10/25/2019
Index Date (METOP-B) Time (METOP-B) Lat,Lon (METOP-B) SZA (METOP-B ) Date (NOAA-19) Time (NOAA-19) Lat,Lon (NOAA-19) SZA (NOAA-19 ) Distance(km) Time Diff (sec)
1 11/03/2019 04:12:38 -79.59, -44.56 84.74 11/03/2019 04:11:30 -79.60, -44.57 84.75 1.49 68
2 11/03/2019 05:03:18 79.59, 122.79 95.28 11/03/2019 05:02:25 79.59, 122.74 95.27 1.36 53
3 11/03/2019 05:54:00 -79.57, -70.00 84.74 11/03/2019 05:53:30 -79.58, -69.86 84.73 2.84 30
4 11/03/2019 06:44:40 79.58, 97.35 95.28 11/03/2019 06:44:25 79.57, 97.45 95.28 2.03 15
5 11/03/2019 07:35:22 -79.56, -95.45 84.73 11/03/2019 07:35:31 -79.59, -95.44 84.71 2.71 9
6 11/03/2019 08:26:02 79.56, 71.90 95.29 11/03/2019 08:26:26 79.58, 71.87 95.31 2.19 24
7 11/03/2019 09:16:43 -79.58,-120.61 84.68 11/03/2019 09:17:31 -79.57,-120.73 84.69 2.98 48
8 11/03/2019 10:07:24 79.55, 46.46 95.29 11/03/2019 10:08:26 79.56, 46.58 95.33 2.69 62




NCC Satellite Simultaneous Nadir Overpasses (SNOs) Prediction Service
